Precipitable_Water
0.25 0.25 0.26 0.28 0.27 0.27 0.27 0.28 0.29 0.30 0.32 0.34 0.34 0.35 0.35 0.36 0.37 0.39 0.40 0.42 0.42 0.41 0.42 0.42 0.42 0.42 0.41 0.39 0.36 0.30 0.29 0.26 0.20 0.18 0.14 0.22 0.28 0.31 0.31 0.33 0.34 0.33 0.30 0.27 0.24 0.21 0.19 0.19 0.19 0.21 0.20 0.18 0.17 0.19 0.18 0.17 0.19 0.17 0.15 0.16 0.11 0.13 0.11 0.17 0.12 0.13 0.20 0.16 0.19 0.16 0.18 0.18 0.18 0.24 0.25 0.28 0.25 0.25 0.28 0.28 0.28 0.30 0.29 0.31 0.32 0.34 0.36 0.37
0.25 0.25 0.27 0.27 0.27 0.26 0.27 0.28 0.29 0.31 0.33 0.34 0.34 0.35 0.35 0.36 0.38 0.40 0.40 0.41 0.42 0.42 0.41 0.42 0.42 0.41 0.41 0.38 0.38 0.32 0.25 0.23 0.18 0.17 0.17 0.28 0.30 0.29 0.30 0.31 0.31 0.26 0.27 0.22 0.18 0.17 0.15 0.17 0.16 0.18 0.18 0.17 0.19 0.16 0.20 0.17 0.20 0.17 0.15 0.12 0.14 0.14 0.17 0.16 0.16 0.17 0.14 0.16 0.20 0.17 0.19 0.20 0.22 0.25 0.25 0.19 0.19 0.21 0.21 0.23 0.27 0.26 0.28 0.31 0.32 0.33 0.34 0.35
0.26 0.27 0.26 0.27 0.27 0.28 0.29 0.30 0.31 0.32 0.33 0.33 0.34 0.35 0.35 0.37 0.38 0.40 0.40 0.41 0.42 0.42 0.42 0.41 0.43 0.42 0.38 0.37 0.36 0.33 0.23 0.18 0.17 0.14 0.21 0.28 0.28 0.28 0.30 0.30 0.29 0.25 0.24 0.17 0.18 0.17 0.17 0.18 0.17 0.16 0.16 0.15 0.16 0.18 0.19 0.18 0.19 0.17 0.15 0.14 0.15 0.17 0.16 0.17 0.18 0.18 0.19 0.21 0.20 0.19 0.19 0.20 0.25 0.24 0.27 0.19 0.19 0.22 0.20 0.20 0.23 0.23 0.24 0.27 0.30 0.32 0.32 0.33
0.27 0.27 0.27 0.28 0.29 0.29 0.30 0.31 0.33 0.33 0.33 0.34 0.35 0.34 0.34 0.37 0.39 0.39 0.41 0.41 0.42 0.41 0.41 0.41 0.40 0.38 0.38 0.37 0.35 0.30 0.24 0.21 0.11 0.17 0.23 0.27 0.27 0.28 0.29 0.29 0.27 0.27 0.26 0.22 0.20 0.18 0.17 0.18 0.17 0.17 0.17 0.15 0.18 0.18 0.17 0.18 0.19 0.20 0.16 0.16 0.16 0.15 0.13 0.14 0.17 0.18 0.19 0.23 0.21 0.20 0.21 0.20 0.24 0.24 0.24 0.21 0.19 0.20 0.22 0.24 0.23 0.23 0.25 0.27 0.30 0.31 0.32 0.32
0.28 0.28 0.29 0.30 0.31 0.31 0.31 0.32 0.33 0.35 0.36 0.35 0.35 0.35 0.37 0.38 0.39 0.40 0.41 0.42 0.40 0.41 0.41 0.40 0.38 0.37 0.37 0.36 0.31 0.26 0.23 0.15 0.13 0.20 0.25 0.25 0.27 0.27 0.28 0.27 0.27 0.27 0.26 0.20 0.21 0.19 0.18 0.16 0.15 0.15 0.17 0.17 0.17 0.17 0.16 0.18 0.20 0.19 0.18 0.19 0.17 0.16 0.15 0.18 0.18 0.19 0.20 0.23 0.22 0.21 0.19 0.18 0.25 0.25 0.23 0.22 0.17 0.17 0.22 0.27 0.27 0.26 0.28 0.29 0.29 0.30 0.32 0.32
0.29 0.30 0.32 0.33 0.33 0.34 0.35 0.36 0.36 0.37 0.37 0.37 0.38 0.38 0.38 0.40 0.41 0.41 0.42 0.42 0.41 0.41 0.39 0.39 0.36 0.36 0.35 0.33 0.29 0.26 0.18 0.10 0.20 0.20 0.26 0.25 0.26 0.27 0.27 0.27 0.26 0.26 0.24 0.22 0.16 0.15 0.15 0.15 0.15 0.17 0.16 0.14 0.15 0.16 0.18 0.19 0.21 0.16 0.17 0.17 0.19 0.19 0.17 0.18 0.19 0.20 0.21 0.20 0.22 0.21 0.21 0.23 0.22 0.21 0.23 0.22 0.20 0.22 0.30 0.31 0.32 0.30 0.30 0.31 0.32 0.32 0.31 0.32
0.31 0.33 0.36 0.38 0.38 0.38 0.37 0.37 0.37 0.38 0.39 0.38 0.39 0.39 0.40 0.41 0.42 0.42 0.43 0.42 0.41 0.41 0.41 0.38 0.38 0.34 0.30 0.30 0.29 0.27 0.17 0.17 0.21 0.24 0.27 0.26 0.26 0.27 0.27 0.27 0.28 0.25 0.22 0.18 0.16 0.14 0.14 0.14 0.15 0.19 0.14 0.14 0.15 0.16 0.18 0.20 0.22 0.21 0.15 0.18 0.17 0.19 0.18 0.19 0.20 0.21 0.22 0.21 0.21 0.24 0.27 0.21 0.21 0.17 0.23 0.21 0.22 0.25 0.27 0.30 0.31 0.30 0.31 0.34 0.33 0.31 0.31 0.32
0.35 0.38 0.40 0.40 0.39 0.39 0.38 0.39 0.39 0.38 0.38 0.39 0.40 0.41 0.42 0.43 0.43 0.43 0.42 0.42 0.41 0.41 0.40 0.40 0.37 0.37 0.34 0.33 0.33 0.17 0.15 0.15 0.21 0.28 0.26 0.27 0.27 0.28 0.28 0.28 0.26 0.23 0.19 0.16 0.15 0.14 0.15 0.15 0.15 0.17 0.17 0.18 0.18 0.18 0.20 0.21 0.21 0.18 0.15 0.18 0.18 0.18 0.19 0.20 0.21 0.21 0.22 0.22 0.25 0.24 0.20 0.19 0.21 0.20 0.23 0.20 0.23 0.25 0.26 0.28 0.29 0.31 0.29 0.29 0.29 0.30 0.31 0.32
0.39 0.41 0.41 0.40 0.39 0.39 0.39 0.39 0.38 0.39 0.40 0.42 0.44 0.44 0.44 0.44 0.43 0.43 0.43 0.42 0.41 0.40 0.42 0.39 0.36 0.34 0.34 0.29 0.26 0.14 0.14 0.23 0.27 0.27 0.27 0.26 0.27 0.30 0.30 0.25 0.26 0.22 0.20 0.19 0.18 0.17 0.16 0.19 0.17 0.19 0.19 0.15 0.19 0.18 0.21 0.20 0.16 0.21 0.18 0.19 0.18 0.18 0.19 0.21 0.21 0.21 0.22 0.22 0.23 0.20 0.19 0.21 0.22 0.25 0.19 0.19 0.21 0.24 0.25 0.26 0.26 0.27 0.29 0.28 0.28 0.28 0.29 0.30
0.42 0.42 0.41 0.40 0.40 0.40 0.40 0.41 0.41 0.42 0.45 0.45 0.45 0.44 0.44 0.43 0.44 0.43 0.43 0.42 0.42 0.40 0.38 0.37 0.32 0.32 0.29 0.27 0.24 0.14 0.20 0.29 0.28 0.28 0.28 0.27 0.27 0.29 0.26 0.26 0.25 0.24 0.22 0.21 0.22 0.20 0.18 0.20 0.19 0.21 0.20 0.19 0.22 0.20 0.23 0.23 0.22 0.23 0.19 0.19 0.18 0.19 0.19 0.21 0.19 0.20 0.21 0.21 0.22 0.18 0.18 0.19 0.24 0.22 0.14 0.20 0.22 0.24 0.24 0.24 0.26 0.26 0.26 0.28 0.28 0.28 0.29 0.30
0.42 0.42 0.42 0.41 0.41 0.42 0.42 0.44 0.45 0.46 0.46 0.46 0.46 0.46 0.45 0.43 0.41 0.42 0.41 0.41 0.39 0.37 0.35 0.33 0.35 0.33 0.31 0.25 0.17 0.12 0.28 0.28 0.29 0.29 0.28 0.28 0.26 0.24 0.23 0.26 0.27 0.24 0.23 0.23 0.23 0.24 0.23 0.22 0.24 0.24 0.24 0.20 0.22 0.21 0.22 0.21 0.25 0.22 0.20 0.20 0.19 0.19 0.21 0.20 0.21 0.20 0.21 0.19 0.22 0.20 0.18 0.20 0.21 0.21 0.15 0.18 0.24 0.24 0.23 0.24 0.24 0.25 0.26 0.26 0.27 0.27 0.29 0.30
0.45 0.44 0.43 0.43 0.44 0.45 0.46 0.46 0.46 0.46 0.46 0.47 0.47 0.46 0.44 0.44 0.41 0.41 0.39 0.39 0.38 0.37 0.36 0.37 0.38 0.36 0.28 0.22 0.17 0.17 0.30 0.28 0.31 0.30 0.29 0.28 0.26 0.27 0.29 0.30 0.30 0.28 0.26 0.23 0.24 0.28 0.29 0.28 0.27 0.25 0.22 0.27 0.20 0.22 0.21 0.26 0.24 0.20 0.21 0.16 0.17 0.18 0.16 0.19 0.18 0.19 0.20 0.19 0.22 0.22 0.17 0.15 0.16 0.15 0.18 0.20 0.22 0.23 0.23 0.23 0.24 0.25 0.26 0.26 0.27 0.27 0.28 0.29
0.47 0.47 0.47 0.46 0.47 0.46 0.46 0.46 0.46 0.47 0.48 0.48 0.48 0.47 0.44 0.42 0.42 0.41 0.39 0.39 0.38 0.36 0.36 0.36 0.35 0.35 0.33 0.17 0.22 0.31 0.34 0.34 0.32 0.32 0.32 0.32 0.30 0.32 0.33 0.33 0.33 0.34 0.33 0.29 0.28 0.31 0.31 0.29 0.28 0.23 0.27 0.26 0.22 0.20 0.22 0.25 0.21 0.21 0.19 0.20 0.15 0.16 0.14 0.18 0.20 0.20 0.19 0.19 0.22 0.22 0.09 0.11 0.16 0.19 0.20 0.22 0.22 0.23 0.22 0.22 0.23 0.24 0.25 0.26 0.26 0.27 0.27 0.29
0.49 0.49 0.48 0.48 0.47 0.46 0.46 0.47 0.48 0.48 0.48 0.48 0.47 0.45 0.45 0.45 0.44 0.44 0.42 0.40 0.38 0.38 0.37 0.37 0.40 0.36 0.27 0.21 0.30 0.35 0.37 0.37 0.36 0.32 0.32 0.37 0.33 0.33 0.36 0.37 0.37 0.36 0.36 0.33 0.33 0.34 0.31 0.33 0.30 0.27 0.31 0.24 0.19 0.28 0.20 0.19 0.20 0.19 0.19 0.18 0.16 0.12 0.12 0.20 0.18 0.19 0.16 0.21 0.21 0.21 0.10 0.10 0.14 0.18 0.23 0.23 0.23 0.22 0.20 0.22 0.23 0.23 0.24 0.24 0.26 0.26 0.26 0.27
0.50 0.49 0.48 0.48 0.48 0.47 0.48 0.50 0.50 0.50 0.49 0.49 0.48 0.48 0.48 0.46 0.46 0.45 0.43 0.40 0.41 0.40 0.40 0.40 0.42 0.36 0.25 0.25 0.37 0.41 0.42 0.42 0.36 0.35 0.39 0.38 0.37 0.35 0.35 0.36 0.35 0.35 0.35 0.34 0.32 0.33 0.34 0.34 0.29 0.23 0.19 0.26 0.24 0.22 0.16 0.17 0.17 0.17 0.12 0.13 0.14 0.10 0.15 0.18 0.21 0.19 0.14 0.20 0.22 0.20 0.11 0.11 0.16 0.19 0.23 0.24 0.24 0.23 0.20 0.21 0.22 0.23 0.23 0.24 0.25 0.26 0.26 0.26
0.48 0.48 0.48 0.47 0.48 0.48 0.49 0.51 0.51 0.50 0.49 0.49 0.48 0.47 0.46 0.44 0.44 0.43 0.43 0.42 0.43 0.44 0.43 0.41 0.37 0.37 0.29 0.27 0.34 0.47 0.43 0.37 0.36 0.41 0.42 0.42 0.38 0.34 0.36 0.34 0.35 0.35 0.35 0.32 0.34 0.32 0.32 0.30 0.22 0.20 0.19 0.22 0.23 0.20 0.16 0.15 0.15 0.15 0.11 0.09 0.10 0.11 0.11 0.13 0.19 0.20 0.20 0.19 0.20 0.18 0.11 0.12 0.12 0.18 0.22 0.23 0.22 0.21 0.21 0.21 0.22 0.22 0.23 0.24 0.25 0.25 0.26 0.26
0.47 0.47 0.46 0.47 0.47 0.49 0.50 0.50 0.50 0.49 0.50 0.50 0.48 0.46 0.46 0.45 0.45 0.43 0.43 0.42 0.43 0.46 0.44 0.37 0.41 0.41 0.27 0.36 0.45 0.35 0.33 0.37 0.42 0.40 0.40 0.41 0.38 0.35 0.34 0.32 0.29 0.28 0.29 0.29 0.29 0.29 0.26 0.24 0.22 0.25 0.24 0.18 0.17 0.16 0.13 0.13 0.11 0.13 0.15 0.10 0.12 0.10 0.11 0.09 0.20 0.21 0.21 0.18 0.15 0.20 0.15 0.12 0.14 0.16 0.19 0.22 0.22 0.21 0.20 0.19 0.20 0.22 0.23 0.24 0.25 0.26 0.26 0.27
0.45 0.45 0.45 0.46 0.48 0.49 0.50 0.49 0.49 0.48 0.48 0.48 0.45 0.44 0.43 0.45 0.46 0.46 0.44 0.44 0.45 0.44 0.39 0.43 0.38 0.35 0.25 0.36 0.27 0.29 0.36 0.35 0.36 0.36 0.36 0.37 0.37 0.33 0.30 0.27 0.27 0.25 0.25 0.23 0.23 0.22 0.22 0.19 0.25 0.15 0.18 0.17 0.15 0.14 0.10 0.10 0.11 0.09 0.10 0.10 0.11 0.14 0.13 0.11 0.11 0.18 0.18 0.20 0.15 0.15 0.15 0.13 0.14 0.16 0.17 0.19 0.22 0.21 0.20 0.20 0.20 0.21 0.22 0.23 0.25 0.26 0.26 0.26
0.43 0.43 0.45 0.46 0.48 0.49 0.49 0.48 0.47 0.46 0.45 0.44 0.44 0.44 0.44 0.44 0.43 0.42 0.39 0.38 0.39 0.36 0.30 0.27 0.34 0.23 0.17 0.25 0.32 0.32 0.32 0.35 0.36 0.34 0.29 0.31 0.32 0.31 0.28 0.28 0.25 0.21 0.18 0.19 0.15 0.20 0.20 0.19 0.22 0.15 0.11 0.11 0.12 0.13 0.11 0.11 0.12 0.11 0.12 0.11 0.11 0.09 0.09 0.10 0.15 0.21 0.18 0.15 0.14 0.15 0.12 0.12 0.13 0.14 0.15 0.17 0.19 0.19 0.21 0.22 0.21 0.21 0.22 0.23 0.24 0.25 0.25 0.25
0.42 0.42 0.45 0.47 0.49 0.49 0.48 0.47 0.46 0.45 0.43 0.42 0.41 0.39 0.39 0.33 0.29 0.27 0.33 0.32 0.28 0.29 0.29 0.30 0.31 0.28 0.28 0.28 0.27 0.32 0.35 0.34 0.27 0.28 0.30 0.32 0.29 0.25 0.23 0.22 0.23 0.23 0.19 0.14 0.16 0.16 0.22 0.12 0.09 0.09 0.11 0.13 0.15 0.15 0.15 0.15 0.14 0.14 0.14 0.13 0.11 0.11 0.11 0.13 0.17 0.19 0.21 0.15 0.12 0.12 0.13 0.13 0.13 0.13 0.14 0.15 0.17 0.17 0.18 0.19 0.20 0.20 0.20 0.21 0.23 0.23 0.24 0.24
0.42 0.42 0.45 0.47 0.48 0.47 0.46 0.45 0.44 0.42 0.41 0.40 0.38 0.41 0.26 0.25 0.20 0.18 0.24 0.26 0.30 0.29 0.28 0.26 0.27 0.25 0.24 0.27 0.28 0.28 0.24 0.23 0.26 0.24 0.27 0.32 0.28 0.25 0.19 0.20 0.23 0.15 0.13 0.14 0.15 0.16 0.21 0.09 0.09 0.12 0.14 0.14 0.14 0.16 0.16 0.15 0.15 0.13 0.12 0.11 0.11 0.12 0.10 0.12 0.13 0.19 0.20 0.14 0.10 0.13 0.12 0.11 0.12 0.14 0.14 0.15 0.16 0.15 0.15 0.17 0.18 0.18 0.19 0.21 0.22 0.23 0.24 0.25
0.41 0.42 0.44 0.46 0.47 0.46 0.44 0.43 0.41 0.40 0.39 0.39 0.38 0.31 0.28 0.29 0.34 0.35 0.32 0.18 0.24 0.27 0.27 0.26 0.27 0.23 0.27 0.26 0.27 0.28 0.26 0.20 0.19 0.21 0.25 0.29 0.21 0.19 0.17 0.19 0.14 0.11 0.15 0.15 0.19 0.14 0.10 0.08 0.12 0.15 0.16 0.17 0.17 0.16 0.17 0.14 0.13 0.14 0.12 0.11 0.11 0.12 0.14 0.12 0.17 0.19 0.18 0.16 0.10 0.14 0.13 0.10 0.11 0.12 0.13 0.13 0.14 0.14 0.16 0.17 0.19 0.19 0.19 0.21 0.22 0.23 0.24 0.25
0.40 0.42 0.43 0.45 0.45 0.44 0.43 0.41 0.40 0.39 0.39 0.36 0.29 0.28 0.27 0.33 0.38 0.38 0.32 0.22 0.20 0.25 0.26 0.23 0.21 0.21 0.21 0.26 0.25 0.28 0.18 0.15 0.15 0.18 0.21 0.26 0.20 0.18 0.20 0.15 0.13 0.13 0.13 0.14 0.12 0.11 0.10 0.11 0.14 0.17 0.18 0.16 0.16 0.16 0.15 0.15 0.15 0.12 0.12 0.12 0.10 0.11 0.11 0.08 0.16 0.17 0.19 0.15 0.11 0.13 0.13 0.12 0.10 0.12 0.13 0.13 0.14 0.14 0.16 0.19 0.19 0.20 0.19 0.20 0.21 0.23 0.23 0.23
0.40 0.42 0.43 0.43 0.44 0.42 0.41 0.40 0.40 0.40 0.36 0.38 0.30 0.29 0.34 0.38 0.36 0.33 0.26 0.18 0.16 0.21 0.23 0.23 0.24 0.21 0.20 0.20 0.25 0.23 0.18 0.17 0.19 0.16 0.25 0.24 0.19 0.21 0.19 0.15 0.14 0.13 0.10 0.13 0.13 0.11 0.10 0.13 0.18 0.18 0.18 0.17 0.15 0.17 0.15 0.15 0.12 0.16 0.14 0.13 0.12 0.12 0.13 0.13 0.13 0.16 0.17 0.17 0.19 0.16 0.12 0.11 0.13 0.12 0.10 0.17 0.15 0.14 0.15 0.17 0.17 0.19 0.21 0.22 0.23 0.23 0.23 0.22
0.39 0.41 0.42 0.42 0.42 0.43 0.40 0.40 0.34 0.32 0.35 0.31 0.29 0.36 0.40 0.40 0.40 0.35 0.26 0.19 0.23 0.18 0.28 0.26 0.26 0.22 0.24 0.31 0.29 0.22 0.20 0.21 0.20 0.22 0.25 0.24 0.20 0.24 0.16 0.21 0.19 0.12 0.13 0.15 0.17 0.16 0.13 0.17 0.21 0.18 0.18 0.18 0.16 0.15 0.18 0.15 0.11 0.12 0.17 0.16 0.14 0.14 0.13 0.13 0.15 0.14 0.11 0.10 0.18 0.16 0.06 0.06 0.11 0.10 0.09 0.11 0.15 0.14 0.16 0.15 0.15 0.17 0.18 0.20 0.21 0.21 0.21 0.22
0.38 0.40 0.41 0.41 0.42 0.41 0.43 0.32 0.31 0.34 0.35 0.30 0.34 0.38 0.41 0.41 0.38 0.37 0.23 0.17 0.10 0.14 0.29 0.15 0.27 0.17 0.31 0.23 0.25 0.26 0.28 0.16 0.22 0.22 0.27 0.26 0.32 0.23 0.23 0.18 0.20 0.14 0.16 0.16 0.16 0.17 0.16 0.19 0.20 0.17 0.17 0.17 0.17 0.15 0.18 0.16 0.12 0.11 0.14 0.17 0.15 0.14 0.14 0.14 0.13 0.13 0.08 0.07 0.16 0.16 0.08 0.05 0.08 0.09 0.10 0.12 0.13 0.11 0.18 0.15 0.16 0.18 0.21 0.24 0.24 0.22 0.23 0.23
0.38 0.39 0.40 0.41 0.41 0.41 0.31 0.27 0.37 0.34 0.28 0.29 0.39 0.41 0.42 0.41 0.42 0.35 0.25 0.14 0.10 0.14 0.15 0.20 0.28 0.20 0.30 0.23 0.25 0.30 0.17 0.15 0.25 0.25 0.23 0.27 0.24 0.31 0.20 0.16 0.21 0.21 0.21 0.20 0.19 0.14 0.17 0.17 0.17 0.18 0.16 0.15 0.15 0.15 0.19 0.17 0.13 0.10 0.17 0.16 0.15 0.13 0.12 0.12 0.13 0.13 0.11 0.15 0.15 0.15 0.14 0.09 0.07 0.07 0.11 0.13 0.12 0.12 0.13 0.16 0.19 0.19 0.18 0.20 0.20 0.19 0.19 0.21
0.37 0.38 0.40 0.42 0.41 0.38 0.41 0.35 0.31 0.28 0.33 0.37 0.41 0.42 0.43 0.42 0.42 0.35 0.18 0.09 0.08 0.20 0.15 0.19 0.19 0.28 0.23 0.23 0.26 0.18 0.17 0.23 0.20 0.21 0.26 0.27 0.27 0.26 0.23 0.16 0.15 0.17 0.19 0.16 0.09 0.13 0.17 0.14 0.15 0.15 0.15 0.15 0.14 0.15 0.17 0.19 0.13 0.13 0.16 0.16 0.13 0.13 0.13 0.14 0.13 0.12 0.13 0.12 0.08 0.13 0.16 0.10 0.07 0.09 0.12 0.13 0.12 0.11 0.13 0.15 0.19 0.20 0.19 0.20 0.19 0.19 0.21 0.21
0.37 0.38 0.41 0.40 0.38 0.39 0.42 0.38 0.33 0.32 0.38 0.42 0.41 0.42 0.43 0.40 0.32 0.22 0.16 0.08 0.13 0.17 0.28 0.20 0.32 0.25 0.22 0.24 0.21 0.21 0.21 0.20 0.15 0.18 0.24 0.29 0.27 0.22 0.18 0.16 0.16 0.17 0.20 0.16 0.11 0.13 0.15 0.16 0.16 0.17 0.15 0.13 0.16 0.17 0.17 0.17 0.12 0.18 0.18 0.17 0.15 0.15 0.15 0.15 0.13 0.11 0.12 0.10 0.06 0.09 0.14 0.08 0.06 0.07 0.08 0.15 0.12 0.12 0.12 0.14 0.17 0.18 0.20 0.19 0.19 0.19 0.21 0.21
0.36 0.38 0.39 0.38 0.36 0.35 0.36 0.39 0.33 0.42 0.44 0.44 0.43 0.41 0.40 0.32 0.26 0.16 0.11 0.08 0.17 0.13 0.19 0.19 0.20 0.16 0.22 0.18 0.17 0.19 0.17 0.18 0.21 0.20 0.23 0.17 0.20 0.25 0.20 0.24 0.16 0.15 0.14 0.16 0.14 0.14 0.15 0.21 0.22 0.17 0.15 0.17 0.17 0.17 0.18 0.17 0.17 0.20 0.18 0.14 0.15 0.16 0.15 0.16 0.15 0.13 0.11 0.07 0.09 0.14 0.14 0.11 0.07 0.07 0.07 0.09 0.14 0.11 0.12 0.12 0.14 0.18 0.19 0.19 0.18 0.20 0.22 0.22
0.35 0.37 0.37 0.39 0.37 0.33 0.34 0.28 0.34 0.44 0.45 0.44 0.43 0.38 0.32 0.27 0.16 0.13 0.09 0.12 0.18 0.16 0.23 0.18 0.16 0.21 0.17 0.15 0.13 0.16 0.18 0.17 0.16 0.16 0.14 0.18 0.14 0.16 0.17 0.17 0.18 0.17 0.13 0.12 0.13 0.12 0.15 0.17 0.15 0.19 0.23 0.21 0.20 0.15 0.18 0.20 0.19 0.18 0.13 0.12 0.14 0.12 0.16 0.13 0.13 0.14 0.09 0.07 0.12 0.14 0.11 0.14 0.07 0.06 0.07 0.10 0.13 0.13 0.13 0.13 0.14 0.15 0.17 0.18 0.20 0.23 0.26 0.27
0.34 0.35 0.37 0.35 0.37 0.40 0.30 0.29 0.36 0.44 0.44 0.42 0.36 0.29 0.23 0.16 0.15 0.11 0.11 0.22 0.12 0.14 0.15 0.14 0.17 0.15 0.16 0.16 0.14 0.13 0.12 0.15 0.15 0.14 0.12 0.12 0.11 0.10 0.11 0.10 0.11 0.07 0.08 0.08 0.08 0.11 0.12 0.12 0.16 0.19 0.20 0.18 0.16 0.12 0.15 0.18 0.19 0.16 0.14 0.12 0.09 0.07 0.07 0.05 0.08 0.08 0.09 0.06 0.10 0.11 0.12 0.08 0.08 0.09 0.11 0.12 0.12 0.15 0.17 0.16 0.16 0.18 0.19 0.20 0.23 0.26 0.27 0.27
0.34 0.34 0.36 0.39 0.40 0.35 0.37 0.40 0.43 0.41 0.40 0.36 0.30 0.25 0.17 0.14 0.10 0.14 0.13 0.15 0.12 0.18 0.14 0.19 0.14 0.14 0.13 0.15 0.11 0.13 0.17 0.11 0.14 0.14 0.15 0.13 0.13 0.13 0.15 0.13 0.14 0.11 0.06 0.08 0.09 0.07 0.09 0.14 0.15 0.14 0.15 0.19 0.16 0.10 0.09 0.09 0.14 0.12 0.11 0.11 0.09 0.06 0.05 0.05 0.06 0.07 0.07 0.10 0.12 0.11 0.13 0.07 0.07 0.10 0.15 0.13 0.15 0.17 0.17 0.18 0.20 0.20 0.22 0.24 0.23 0.23 0.23 0.24
0.33 0.31 0.30 0.36 0.35 0.37 0.38 0.40 0.40 0.39 0.34 0.32 0.27 0.21 0.19 0.11 0.10 0.18 0.13 0.14 0.13 0.17 0.17 0.14 0.14 0.14 0.13 0.10 0.11 0.13 0.11 0.14 0.13 0.12 0.14 0.12 0.12 0.10 0.13 0.14 0.14 0.11 0.11 0.10 0.07 0.07 0.06 0.05 0.12 0.10 0.09 0.17 0.14 0.13 0.13 0.11 0.12 0.11 0.17 0.14 0.10 0.09 0.09 0.06 0.07 0.06 0.07 0.07 0.09 0.13 0.09 0.07 0.06 0.07 0.11 0.14 0.17 0.17 0.18 0.18 0.20 0.22 0.24 0.25 0.24 0.24 0.27 0.28
0.31 0.32 0.33 0.36 0.35 0.37 0.37 0.38 0.38 0.37 0.33 0.27 0.20 0.17 0.10 0.10 0.12 0.11 0.12 0.13 0.14 0.15 0.13 0.16 0.12 0.12 0.11 0.12 0.12 0.14 0.12 0.10 0.13 0.12 0.11 0.11 0.10 0.10 0.09 0.10 0.13 0.12 0.11 0.08 0.08 0.08 0.07 0.06 0.09 0.13 0.13 0.15 0.12 0.16 0.16 0.14 0.11 0.16 0.15 0.15 0.14 0.13 0.16 0.09 0.09 0.09 0.08 0.09 0.08 0.09 0.08 0.09 0.09 0.12 0.14 0.17 0.16 0.15 0.17 0.17 0.18 0.22 0.25 0.26 0.24 0.25 0.24 0.25
0.28 0.28 0.30 0.27 0.28 0.32 0.36 0.36 0.36 0.36 0.28 0.22 0.17 0.10 0.09 0.11 0.10 0.14 0.13 0.19 0.16 0.12 0.13 0.14 0.12 0.11 0.09 0.10 0.12 0.10 0.16 0.11 0.11 0.11 0.11 0.11 0.12 0.10 0.13 0.12 0.11 0.13 0.10 0.07 0.08 0.06 0.06 0.06 0.09 0.12 0.14 0.13 0.13 0.15 0.15 0.16 0.07 0.12 0.12 0.11 0.14 0.16 0.13 0.11 0.11 0.14 0.14 0.12 0.09 0.13 0.12 0.12 0.13 0.11 0.15 0.17 0.15 0.14 0.14 0.16 0.17 0.18 0.20 0.21 0.22 0.23 0.24 0.24
0.27 0.31 0.23 0.28 0.28 0.34 0.35 0.36 0.35 0.30 0.27 0.19 0.12 0.09 0.13 0.13 0.16 0.14 0.17 0.14 0.15 0.16 0.12 0.09 0.08 0.09 0.07 0.08 0.09 0.09 0.10 0.14 0.11 0.10 0.08 0.11 0.11 0.11 0.11 0.12 0.15 0.14 0.14 0.11 0.09 0.11 0.06 0.05 0.10 0.10 0.09 0.14 0.17 0.16 0.16 0.18 0.18 0.14 0.10 0.14 0.16 0.18 0.16 0.14 0.09 0.10 0.10 0.08 0.08 0.09 0.08 0.08 0.08 0.08 0.15 0.17 0.16 0.15 0.13 0.14 0.18 0.18 0.19 0.18 0.19 0.20 0.21 0.21
0.25 0.25 0.25 0.25 0.28 0.33 0.34 0.34 0.33 0.27 0.18 0.12 0.10 0.11 0.16 0.12 0.17 0.17 0.19 0.16 0.16 0.15 0.11 0.09 0.09 0.11 0.07 0.08 0.07 0.08 0.09 0.09 0.08 0.09 0.07 0.09 0.07 0.14 0.12 0.10 0.15 0.14 0.15 0.17 0.10 0.10 0.12 0.06 0.09 0.11 0.12 0.13 0.16 0.16 0.14 0.20 0.21 0.13 0.12 0.20 0.10 0.08 0.06 0.11 0.11 0.08 0.08 0.07 0.07 0.09 0.11 0.10 0.09 0.10 0.13 0.14 0.14 0.14 0.12 0.14 0.17 0.18 0.17 0.17 0.18 0.19 0.22 0.23
0.24 0.26 0.17 0.23 0.30 0.32 0.30 0.30 0.27 0.19 0.14 0.10 0.11 0.09 0.13 0.14 0.19 0.17 0.18 0.18 0.16 0.12 0.09 0.09 0.08 0.09 0.09 0.07 0.07 0.09 0.09 0.07 0.09 0.07 0.07 0.08 0.06 0.12 0.11 0.12 0.12 0.15 0.16 0.17 0.12 0.13 0.13 0.07 0.07 0.13 0.11 0.12 0.12 0.12 0.07 0.13 0.18 0.19 0.21 0.15 0.18 0.14 0.12 0.10 0.11 0.11 0.10 0.08 0.09 0.08 0.10 0.07 0.09 0.11 0.13 0.14 0.13 0.12 0.13 0.14 0.15 0.17 0.17 0.18 0.19 0.22 0.23 0.23
0.20 0.15 0.14 0.25 0.28 0.31 0.30 0.28 0.20 0.15 0.11 0.08 0.10 0.10 0.15 0.12 0.16 0.18 0.19 0.17 0.12 0.12 0.09 0.09 0.10 0.08 0.08 0.08 0.09 0.07 0.10 0.10 0.08 0.08 0.08 0.09 0.07 0.14 0.11 0.15 0.12 0.13 0.16 0.17 0.14 0.16 0.10 0.13 0.05 0.08 0.12 0.12 0.08 0.10 0.08 0.08 0.09 0.12 0.13 0.12 0.16 0.15 0.16 0.14 0.13 0.11 0.09 0.09 0.09 0.10 0.09 0.09 0.09 0.11 0.11 0.12 0.13 0.14 0.15 0.16 0.18 0.19 0.19 0.20 0.22 0.23 0.23 0.24
0.18 0.15 0.13 0.25 0.24 0.28 0.23 0.19 0.11 0.10 0.10 0.12 0.13 0.12 0.14 0.12 0.15 0.16 0.19 0.20 0.16 0.19 0.12 0.11 0.10 0.07 0.08 0.08 0.08 0.10 0.08 0.10 0.09 0.08 0.08 0.08 0.08 0.06 0.13 0.13 0.15 0.13 0.16 0.15 0.14 0.15 0.11 0.11 0.08 0.08 0.08 0.07 0.07 0.11 0.11 0.12 0.12 0.11 0.10 0.08 0.10 0.09 0.09 0.08 0.06 0.14 0.13 0.11 0.09 0.10 0.09 0.10 0.12 0.12 0.13 0.15 0.16 0.15 0.16 0.16 0.18 0.20 0.20 0.22 0.23 0.23 0.25 0.27
0.14 0.09 0.11 0.22 0.25 0.27 0.22 0.09 0.11 0.14 0.12 0.10 0.09 0.14 0.12 0.19 0.14 0.14 0.16 0.18 0.17 0.13 0.17 0.13 0.12 0.11 0.09 0.09 0.09 0.09 0.08 0.09 0.08 0.08 0.09 0.07 0.10 0.09 0.12 0.18 0.17 0.18 0.14 0.11 0.12 0.17 0.15 0.12 0.10 0.07 0.07 0.07 0.09 0.12 0.15 0.15 0.15 0.13 0.12 0.10 0.11 0.11 0.13 0.10 0.07 0.09 0.13 0.13 0.14 0.13 0.11 0.08 0.14 0.15 0.17 0.18 0.17 0.17 0.17 0.18 0.18 0.20 0.22 0.23 0.23 0.25 0.27 0.28
0.11 0.10 0.17 0.21 0.23 0.18 0.13 0.09 0.12 0.11 0.10 0.13 0.18 0.16 0.18 0.15 0.14 0.14 0.13 0.15 0.12 0.14 0.13 0.11 0.10 0.10 0.11 0.11 0.10 0.10 0.09 0.08 0.08 0.07 0.08 0.09 0.09 0.12 0.16 0.18 0.20 0.17 0.17 0.15 0.15 0.18 0.18 0.11 0.09 0.08 0.09 0.11 0.14 0.16 0.15 0.16 0.16 0.13 0.13 0.12 0.11 0.10 0.12 0.11 0.11 0.14 0.11 0.11 0.11 0.11 0.10 0.10 0.14 0.14 0.15 0.15 0.16 0.17 0.18 0.19 0.19 0.21 0.22 0.23 0.24 0.28 0.29 0.30
0.11 0.11 0.14 0.20 0.25 0.18 0.15 0.06 0.07 0.09 0.10 0.13 0.14 0.12 0.17 0.15 0.14 0.12 0.12 0.13 0.12 0.11 0.11 0.11 0.13 0.14 0.11 0.14 0.11 0.09 0.11 0.06 0.09 0.09 0.08 0.10 0.09 0.17 0.17 0.18 0.20 0.15 0.15 0.15 0.12 0.19 0.10 0.12 0.10 0.07 0.06 0.06 0.07 0.10 0.11 0.13 0.15 0.13 0.11 0.11 0.13 0.14 0.14 0.14 0.15 0.16 0.11 0.10 0.11 0.11 0.08 0.09 0.12 0.16 0.17 0.15 0.15 0.15 0.17 0.19 0.19 0.20 0.21 0.23 0.26 0.28 0.28 0.30
0.10 0.11 0.12 0.14 0.17 0.15 0.08 0.11 0.09 0.09 0.09 0.09 0.10 0.09 0.11 0.12 0.15 0.14 0.13 0.12 0.15 0.13 0.12 0.11 0.12 0.13 0.12 0.14 0.11 0.11 0.12 0.09 0.07 0.11 0.10 0.10 0.10 0.17 0.17 0.18 0.20 0.17 0.21 0.22 0.20 0.23 0.13 0.11 0.10 0.06 0.05 0.05 0.04 0.04 0.05 0.06 0.08 0.09 0.10 0.10 0.12 0.12 0.13 0.13 0.11 0.13 0.11 0.12 0.12 0.11 0.11 0.12 0.14 0.16 0.16 0.16 0.16 0.16 0.17 0.18 0.19 0.20 0.21 0.24 0.25 0.25 0.26 0.28
0.08 0.05 0.09 0.10 0.12 0.11 0.12 0.14 0.11 0.09 0.08 0.08 0.08 0.09 0.11 0.09 0.12 0.15 0.16 0.13 0.16 0.15 0.14 0.13 0.14 0.14 0.11 0.12 0.10 0.10 0.10 0.12 0.10 0.08 0.09 0.09 0.11 0.14 0.17 0.18 0.18 0.19 0.20 0.21 0.21 0.20 0.13 0.12 0.11 0.10 0.08 0.07 0.07 0.08 0.10 0.12 0.11 0.09 0.08 0.08 0.10 0.13 0.15 0.14 0.14 0.11 0.10 0.12 0.10 0.09 0.10 0.11 0.11 0.13 0.14 0.15 0.16 0.16 0.17 0.18 0.18 0.19 0.21 0.23 0.24 0.26 0.27 0.27
0.10 0.07 0.08 0.07 0.11 0.10 0.10 0.12 0.11 0.11 0.08 0.12 0.07 0.10 0.08 0.09 0.11 0.12 0.17 0.11 0.14 0.14 0.14 0.13 0.12 0.11 0.10 0.11 0.09 0.09 0.10 0.10 0.12 0.10 0.09 0.09 0.11 0.13 0.17 0.17 0.18 0.20 0.20 0.19 0.21 0.18 0.13 0.10 0.11 0.12 0.11 0.10 0.11 0.10 0.11 0.12 0.10 0.09 0.09 0.08 0.09 0.11 0.13 0.12 0.11 0.09 0.14 0.13 0.08 0.08 0.10 0.10 0.10 0.12 0.13 0.15 0.16 0.16 0.18 0.19 0.19 0.19 0.20 0.22 0.24 0.24 0.24 0.24
0.07 0.10 0.12 0.13 0.09 0.07 0.08 0.07 0.11 0.10 0.11 0.10 0.09 0.11 0.09 0.09 0.09 0.08 0.12 0.14 0.15 0.15 0.11 0.12 0.12 0.13 0.12 0.10 0.11 0.08 0.09 0.09 0.10 0.08 0.10 0.11 0.11 0.12 0.12 0.17 0.16 0.19 0.19 0.18 0.21 0.16 0.12 0.08 0.10 0.10 0.09 0.11 0.11 0.11 0.11 0.11 0.10 0.10 0.10 0.10 0.10 0.10 0.12 0.11 0.10 0.12 0.13 0.11 0.08 0.08 0.10 0.10 0.10 0.12 0.13 0.14 0.15 0.17 0.19 0.19 0.20 0.21 0.22 0.23 0.23 0.23 0.23 0.22
0.11 0.12 0.12 0.16 0.09 0.10 0.10 0.10 0.11 0.10 0.09 0.10 0.10 0.11 0.08 0.09 0.08 0.10 0.10 0.10 0.12 0.11 0.13 0.08 0.09 0.12 0.12 0.14 0.11 0.09 0.10 0.07 0.07 0.11 0.10 0.10 0.10 0.11 0.10 0.12 0.17 0.18 0.18 0.16 0.18 0.19 0.14 0.10 0.12 0.12 0.09 0.09 0.10 0.11 0.12 0.11 0.11 0.10 0.10 0.10 0.10 0.10 0.10 0.11 0.11 0.12 0.13 0.11 0.11 0.11 0.11 0.11 0.11 0.12 0.13 0.15 0.17 0.19 0.20 0.21 0.23 0.23 0.22 0.23 0.23 0.23 0.22 0.22
0.08 0.08 0.08 0.13 0.12 0.11 0.11 0.10 0.10 0.09 0.08 0.10 0.08 0.09 0.10 0.09 0.08 0.10 0.11 0.11 0.08 0.10 0.14 0.10 0.10 0.12 0.13 0.13 0.13 0.10 0.11 0.12 0.12 0.10 0.12 0.12 0.11 0.13 0.11 0.11 0.11 0.16 0.17 0.14 0.16 0.18 0.13 0.09 0.12 0.11 0.09 0.08 0.09 0.11 0.13 0.13 0.12 0.10 0.10 0.10 0.10 0.10 0.10 0.10 0.11 0.12 0.14 0.12 0.12 0.12 0.11 0.10 0.11 0.14 0.15 0.17 0.19 0.19 0.20 0.21 0.21 0.22 0.21 0.22 0.22 0.22 0.22 0.22
0.12 0.13 0.11 0.08 0.07 0.09 0.11 0.09 0.09 0.08 0.07 0.09 0.08 0.09 0.11 0.10 0.10 0.12 0.11 0.14 0.11 0.10 0.12 0.10 0.12 0.12 0.15 0.13 0.13 0.13 0.15 0.13 0.13 0.14 0.15 0.15 0.10 0.14 0.11 0.12 0.15 0.12 0.15 0.14 0.16 0.16 0.15 0.11 0.14 0.13 0.10 0.07 0.08 0.09 0.09 0.10 0.11 0.10 0.11 0.10 0.09 0.10 0.09 0.09 0.10 0.13 0.11 0.10 0.10 0.10 0.10 0.09 0.11 0.15 0.16 0.15 0.16 0.17 0.19 0.20 0.21 0.22 0.22 0.22 0.22 0.22 0.21 0.21
0.13 0.14 0.14 0.10 0.07 0.10 0.08 0.10 0.10 0.10 0.07 0.10 0.10 0.10 0.10 0.10 0.13 0.15 0.09 0.13 0.15 0.16 0.15 0.14 0.14 0.14 0.13 0.13 0.11 0.13 0.15 0.16 0.16 0.17 0.18 0.19 0.19 0.18 0.19 0.18 0.18 0.15 0.14 0.14 0.17 0.14 0.15 0.13 0.12 0.12 0.09 0.07 0.08 0.11 0.10 0.10 0.09 0.09 0.11 0.10 0.10 0.10 0.10 0.10 0.10 0.11 0.12 0.12 0.11 0.09 0.09 0.10 0.12 0.13 0.14 0.15 0.16 0.17 0.19 0.21 0.21 0.22 0.23 0.23 0.24 0.23 0.21 0.21
Wind_Speed
14 14 14 14 13 13 12 12 12 12 11 11 11 11 11 11 11 11 11 10 10 10 10 10 10 10 9 8 7 7 5 4 4 3 4 4 4 5 6 6 6 6 6 6 7 6 6 6 6 5 5 4 3 2 2 1 2 3 3 3 4 3 3 3 3 4 5 4 2 3 4 5 5 5 6 8 9 10 10 10 11 11 11 13 12 12 12 12
14 14 13 13 13 13 12 12 12 11 11 11 11 11 11 11 11 11 11 11 11 11 11 10 10 10 9 8 7 7 6 6 4 2 3 3 3 4 4 5 5 5 6 6 7 6 6 6 5 5 4 4 2 2 2 2 2 3 3 3 3 3 3 4 4 4 5 5 3 3 4 5 6 6 6 8 9 10 11 11 11 12 13 13 13 13 13 13
12 12 12 12 12 12 12 11 11 11 11 11 10 10 11 11 11 11 11 11 11 11 10 9 9 9 8 8 8 8 7 7 5 2 2 2 2 3 4 4 4 5 6 5 6 6 6 5 5 4 4 3 2 2 2 2 2 2 3 4 3 3 3 4 5 4 6 6 3 3 4 6 7 7 7 8 10 10 11 12 11 13 14 14 14 14 14 15
11 11 11 11 11 11 11 11 11 10 10 10 10 10 10 10 11 11 10 10 9 8 7 7 7 7 7 8 8 8 8 8 5 2 2 2 2 4 4 4 4 6 6 5 5 6 6 5 4 3 3 3 2 2 2 2 2 2 3 4 3 3 4 4 5 5 6 7 5 4 5 7 7 8 9 9 11 12 12 12 12 14 14 14 15 15 14 15
10 10 10 10 10 10 10 10 10 9 9 9 9 9 9 9 9 9 8 8 7 6 5 4 4 6 8 9 10 9 8 7 6 3 2 2 3 4 4 4 4 5 6 5 5 5 6 5 4 3 3 3 2 3 2 2 3 3 3 4 4 4 5 4 5 6 6 7 6 5 6 8 8 10 11 11 12 12 12 12 13 14 15 15 16 16 15 15
10 10 9 9 9 9 9 8 8 8 8 8 8 8 7 7 7 6 6 7 7 6 5 4 5 7 9 10 10 9 7 7 5 2 1 2 3 4 4 4 4 5 5 5 5 5 5 5 4 4 3 3 2 2 1 2 3 4 3 3 4 5 5 4 5 6 6 7 7 6 8 9 9 11 12 13 14 14 13 13 14 14 15 16 17 17 16 16
11 10 10 9 9 8 7 7 6 6 6 6 6 6 5 5 5 5 6 8 8 8 7 6 7 9 10 11 10 9 7 6 4 2 1 2 4 4 5 5 5 5 5 5 5 5 4 4 4 3 3 3 2 2 2 3 4 4 3 3 4 5 6 5 6 7 7 8 8 9 10 10 11 13 13 14 16 16 16 16 16 16 16 17 17 18 17 17
11 11 10 9 8 7 7 6 6 6 5 6 6 5 5 5 5 6 7 9 9 8 7 8 8 10 11 10 10 9 6 4 3 1 2 3 4 5 5 5 5 5 5 4 3 3 4 4 4 3 3 2 1 2 3 3 4 4 4 4 5 5 6 6 7 7 7 9 10 11 11 12 13 14 15 16 17 17 18 18 18 17 17 18 18 19 19 18
11 11 10 9 8 7 7 6 5 5 5 6 6 6 6 6 6 7 8 9 9 8 8 9 9 10 10 9 8 8 5 3 3 3 3 4 5 5 5 5 5 4 4 4 3 3 4 3 3 3 2 1 1 2 4 5 4 4 4 4 5 5 6 6 7 7 8 10 11 12 13 14 14 15 17 17 18 18 18 18 18 18 18 19 19 20 20 19
12 11 10 10 9 8 7 6 5 5 5 6 7 7 7 8 7 7 8 10 10 9 9 9 10 10 9 8 7 7 5 4 4 4 5 5 5 5 5 5 4 4 3 3 2 2 3 2 2 2 1 1 2 3 5 5 4 4 3 5 5 6 6 7 8 8 10 11 11 13 14 16 14 13 16 16 15 16 16 17 17 18 18 19 20 20 20 20
12 11 11 11 10 10 8 8 7 7 7 7 8 8 9 10 10 9 10 11 11 10 10 11 11 10 9 7 7 7 6 5 6 5 6 6 6 5 5 4 3 3 2 2 2 1 1 1 1 1 2 2 2 3 4 5 4 3 3 5 6 7 7 8 9 9 11 11 11 14 16 18 15 14 17 16 14 14 14 16 16 17 18 19 20 20 20 20
13 13 13 12 12 11 10 10 11 11 11 10 10 10 12 13 12 12 13 14 13 12 13 12 11 10 9 9 8 8 7 7 7 6 6 6 6 5 4 3 2 2 2 2 1 0 0 0 1 1 2 2 3 3 4 4 4 4 5 7 7 8 9 9 10 10 12 12 11 15 17 17 15 15 19 19 16 15 15 17 17 18 19 19 19 19 20 20
14 14 14 13 12 12 12 13 13 14 14 14 14 14 14 15 15 14 14 14 13 13 12 11 10 9 9 10 9 9 8 8 7 6 6 6 6 5 5 4 3 2 1 1 1 1 1 1 1 1 2 3 4 4 3 4 6 6 8 9 8 10 10 9 10 11 12 13 12 15 17 17 15 16 19 18 16 16 17 18 19 19 19 19 19 20 21 21
15 15 14 14 13 14 14 15 16 16 17 17 17 17 17 17 16 16 14 14 13 13 12 11 11 10 11 11 10 9 8 7 7 6 6 6 6 5 5 5 4 4 3 3 2 2 2 1 1 1 3 3 3 3 4 5 7 7 8 9 10 11 10 9 11 12 13 13 13 15 17 19 18 17 17 16 15 16 18 20 20 20 20 20 20 20 21 22
16 15 15 15 15 16 16 17 17 17 18 18 18 18 18 18 17 16 15 14 14 13 13 12 12 11 13 12 10 9 8 7 6 6 5 5 4 4 4 4 4 4 3 3 3 2 2 1 1 2 3 3 3 4 6 6 7 8 9 9 10 11 11 11 12 13 14 14 13 16 18 19 20 18 15 15 17 18 20 21 21 21 21 21 21 21 22 22
16 16 16 16 17 17 17 18 18 18 18 18 19 19 19 19 18 18 17 15 15 14 13 13 12 12 12 11 9 8 7 6 6 5 5 4 4 3 2 2 2 2 2 2 2 2 2 2 2 3 3 4 6 7 8 8 8 9 10 12 12 13 14 13 13 14 16 16 15 17 19 20 21 20 17 17 19 19 21 22 23 23 22 23 23 23 23 24
17 16 16 17 18 18 18 18 19 19 19 20 20 20 20 19 19 18 17 17 16 15 14 13 12 12 11 9 8 8 7 6 5 4 4 4 3 3 2 1 0 1 1 1 2 2 3 3 3 4 5 6 7 8 9 9 9 9 11 13 13 14 16 16 15 15 16 17 18 19 21 23 23 23 23 22 21 21 22 23 24 24 24 24 24 24 24 25
17 17 17 18 19 19 19 19 20 20 21 21 21 21 20 19 19 18 16 15 14 13 13 12 10 11 11 9 8 7 6 6 5 4 4 3 2 2 2 1 1 1 2 2 3 4 4 4 5 5 6 7 8 9 10 10 11 12 13 15 15 16 17 18 17 16 17 19 20 22 23 25 26 25 27 26 25 24 24 24 25 25 25 26 25 25 25 25
17 18 18 19 19 19 20 20 20 21 21 21 21 21 20 19 19 18 16 15 13 13 12 11 10 11 11 10 8 7 7 6 5 4 3 3 2 2 2 2 1 2 3 3 4 5 5 6 6 7 8 9 10 10 11 11 12 14 15 16 17 18 18 19 18 16 18 21 22 24 25 27 27 27 27 27 27 26 26 26 25 25 26 25 26 26 26 26
17 18 18 19 19 20 20 21 21 22 22 22 22 21 20 20 19 18 18 18 17 15 14 13 13 13 11 9 8 7 6 6 5 5 4 3 2 2 2 3 2 3 4 5 5 6 6 6 7 8 9 10 10 11 11 12 13 14 15 16 18 19 19 20 19 17 18 22 23 25 27 28 29 28 28 28 28 27 27 27 26 26 25 25 26 26 26 27
18 18 19 20 20 20 21 22 22 22 22 22 20 19 19 18 18 18 18 18 18 16 16 15 13 13 11 9 8 7 6 6 7 7 6 4 2 2 3 4 3 4 5 5 6 6 7 7 8 9 9 10 11 11 12 12 13 15 16 17 18 19 20 21 20 18 19 22 24 26 28 30 29 29 29 29 27 27 27 27 26 26 26 26 27 27 27 28
18 19 19 20 20 21 21 22 22 21 20 20 18 18 20 19 19 19 17 17 17 15 15 14 12 12 11 9 9 8 6 6 7 8 8 6 4 4 5 5 4 5 5 6 7 7 7 8 8 9 10 11 11 12 13 14 15 16 16 18 19 19 21 22 19 19 21 23 26 28 29 30 29 29 29 27 26 26 27 26 26 26 27 26 26 26 28 28
18 19 19 20 20 21 21 20 19 18 17 17 18 20 20 19 18 17 15 15 15 13 13 13 13 12 10 10 9 7 7 7 6 8 9 7 6 5 6 6 6 6 7 8 9 8 8 9 10 10 11 12 13 13 14 16 16 17 18 19 20 21 22 22 21 22 24 25 27 29 29 30 29 26 24 24 25 25 25 24 24 25 25 26 26 27 28 29
18 18 19 19 20 19 19 18 16 16 16 17 18 18 17 15 14 13 12 12 13 12 11 11 12 11 10 9 8 7 8 8 6 8 9 8 7 6 7 7 8 8 9 11 11 9 10 11 11 11 12 14 15 15 16 17 18 18 18 20 21 23 24 25 26 27 28 26 25 27 29 27 24 22 22 22 23 25 24 24 24 24 25 26 26 27 29 29
18 19 19 19 19 18 17 16 15 16 17 17 17 15 14 13 11 11 10 10 11 11 10 9 9 10 9 7 7 6 6 7 7 8 9 9 9 7 7 8 9 8 9 11 11 10 11 12 12 13 14 15 16 17 17 18 20 19 18 20 23 25 26 27 28 29 28 24 22 24 27 25 22 24 26 25 25 26 23 23 24 24 24 25 26 27 28 29
18 18 18 17 17 16 15 14 14 15 15 14 13 12 11 10 10 11 9 9 11 10 9 9 8 8 8 7 7 5 4 6 8 9 9 10 10 8 8 9 9 9 10 12 12 11 12 13 14 15 16 17 18 18 17 18 21 20 19 22 24 25 27 28 28 27 26 25 24 24 24 26 27 27 27 26 27 27 24 23 25 24 24 24 25 27 28 29
17 17 17 16 15 15 14 12 13 13 11 11 10 8 8 7 7 8 7 7 9 9 9 9 8 8 9 8 9 6 4 7 7 9 11 10 10 9 9 10 10 10 11 13 13 12 13 14 14 16 17 18 18 19 18 19 22 21 21 24 26 26 27 28 27 26 26 27 28 24 22 25 28 27 26 26 27 27 25 25 25 24 25 25 25 26 28 30
16 16 16 15 14 13 12 12 12 11 10 9 8 7 6 5 5 6 5 7 8 8 8 8 7 9 9 8 10 8 7 9 8 9 12 11 11 10 10 11 12 11 11 14 14 14 15 16 16 17 17 18 18 19 20 21 22 22 23 25 26 27 28 27 27 27 26 27 26 22 21 23 26 27 26 25 26 25 25 26 26 26 26 26 26 27 30 31
16 16 15 15 14 13 12 11 10 9 8 8 7 6 6 6 5 5 5 6 7 7 7 8 7 9 9 7 9 10 9 9 9 10 12 11 11 11 10 11 12 11 11 14 15 15 16 16 16 17 17 19 20 20 21 21 23 24 25 26 27 26 26 25 25 26 25 25 25 22 20 24 28 29 27 25 25 25 26 28 28 28 28 27 28 29 30 32
16 15 15 14 13 12 11 10 9 8 7 7 6 6 6 6 5 4 6 6 7 7 7 8 8 9 10 8 8 11 10 10 11 12 11 11 12 12 11 12 12 12 12 14 16 15 15 16 16 17 18 20 21 21 20 22 24 26 27 29 28 26 24 24 25 25 24 23 22 20 21 25 28 29 29 26 24 26 29 30 29 28 28 28 29 30 31 32
16 15 13 12 11 10 9 9 9 8 7 6 6 6 6 5 5 5 6 6 6 7 7 8 8 9 11 9 8 11 11 10 12 13 12 12 13 14 13 13 14 14 13 15 17 16 15 16 16 18 20 21 22 22 21 22 24 25 27 29 29 26 24 24 24 22 23 23 21 21 25 27 28 30 31 28 27 29 30 29 28 28 28 29 30 31 32 33
15 15 13 12 10 9 8 8 8 7 7 6 6 6 6 6 7 7 6 5 5 7 7 7 8 9 10 9 9 12 11 11 12 12 13 13 13 15 15 16 17 16 16 18 19 18 17 16 17 19 20 20 22 24 23 22 23 26 28 28 28 27 25 25 24 23 25 24 22 25 28 28 31 33 32 32 32 32 30 28 28 28 29 29 30 32 33 35
14 14 13 11 9 8 8 7 7 7 7 7 6 6 5 6 7 7 6 6 6 6 7 7 9 10 10 10 11 12 11 12 14 13 13 13 14 15 15 17 19 18 19 20 21 21 19 17 18 20 20 20 23 26 25 25 27 29 28 27 27 26 26 27 26 26 27 26 26 28 29 30 32 31 31 34 34 31 29 28 28 29 30 30 32 33 34 34
13 12 11 10 9 8 7 6 6 6 7 7 6 6 7 7 7 6 7 7 6 6 7 8 9 10 10 11 12 13 12 12 14 14 14 15 15 16 16 17 20 19 20 20 20 21 20 18 20 22 22 22 23 25 26 28 30 28 26 26 26 25 25 26 27 28 29 30 31 29 28 29 30 31 33 33 30 26 26 27 28 28 29 30 33 33 33 34
13 11 10 9 9 8 7 6 6 6 7 6 6 7 8 7 7 7 7 8 7 8 8 8 10 11 11 11 12 13 13 13 15 15 15 16 16 17 18 19 21 21 20 21 20 21 21 20 21 21 21 23 24 24 26 28 27 25 25 25 24 24 26 27 29 30 30 32 32 29 29 30 33 37 34 28 25 26 28 29 29 29 29 30 32 33 34 35
11 11 10 10 9 8 8 7 6 7 7 6 6 9 8 7 7 7 8 8 8 10 10 10 11 12 12 13 12 14 14 14 15 15 15 16 16 17 18 18 20 21 21 21 21 21 22 22 21 21 21 23 24 24 25 27 26 25 25 25 25 26 27 28 30 31 30 30 30 30 32 34 36 35 30 25 27 30 32 32 31 31 32 32 32 34 36 37
11 11 10 10 9 8 8 7 7 6 7 7 8 9 8 7 8 9 9 10 9 10 11 11 11 13 14 14 14 16 16 14 16 16 16 16 16 17 18 18 19 20 21 21 21 21 22 25 23 22 22 24 24 25 25 24 25 25 24 25 27 27 26 27 29 29 29 30 30 32 34 36 35 32 29 29 31 34 36 34 32 33 34 33 34 36 37 38
11 11 11 11 10 9 8 8 8 7 7 8 9 9 8 8 9 9 9 10 9 10 11 12 12 13 14 15 15 17 17 16 17 17 16 17 17 17 19 19 19 20 21 21 21 21 22 25 23 22 25 26 24 25 25 23 24 25 25 26 28 26 26 27 28 29 30 30 30 32 32 33 33 32 30 31 34 37 38 35 34 34 34 34 35 36 38 39
10 10 10 11 10 9 9 7 7 7 8 8 9 8 8 8 9 9 10 10 10 10 12 12 12 13 14 16 16 16 16 16 18 18 16 17 18 17 18 19 19 19 21 21 22 22 23 23 22 23 26 26 24 25 25 24 24 25 25 25 26 25 26 28 28 28 29 29 29 30 29 30 31 32 32 34 36 38 36 35 34 34 34 34 34 35 37 39
8 8 9 10 10 10 10 9 9 9 9 9 9 8 8 8 8 9 10 11 11 11 12 12 14 14 15 15 15 16 17 16 17 18 17 18 19 18 18 20 21 21 21 22 22 23 23 22 23 25 26 26 25 25 25 26 25 24 24 25 26 27 27 28 28 26 26 27 27 27 27 29 30 31 33 36 36 35 34 35 34 34 35 34 33 35 38 40
7 7 9 10 9 9 9 10 11 10 9 9 10 9 9 9 9 10 11 11 11 12 13 14 15 15 16 16 16 17 17 17 17 18 17 18 19 18 19 20 22 22 22 22 22 23 24 23 25 27 28 27 26 24 25 26 24 24 25 26 28 29 27 27 27 25 24 25 26 27 28 31 31 31 33 34 33 32 34 35 34 34 35 34 34 38 39 40
8 8 8 10 10 9 9 10 10 10 9 9 9 9 9 9 10 11 11 12 12 13 13 14 16 16 16 17 17 17 18 17 17 18 18 19 19 19 20 21 22 23 23 23 23 23 24 24 26 27 28 28 26 24 24 25 24 25 26 27 28 28 26 26 26 26 25 26 27 27 28 31 32 30 31 32 31 32 34 35 34 34 34 35 38 40 41 41
9 9 9 9 9 9 9 9 9 10 10 9 9 10 10 11 11 12 12 13 13 14 14 14 16 16 16 17 17 18 18 17 17 19 19 19 19 20 21 22 23 22 23 23 23 23 24 24 26 28 29 27 24 22 23 24 25 26 27 28 28 28 26 25 26 26 26 27 27 26 27 30 32 31 31 33 33 33 34 35 34 34 35 37 40 41 41 42
10 10 11 11 9 8 8 9 9 9 9 9 9 10 11 12 13 13 13 15 14 14 15 15 16 17 17 18 18 19 19 18 17 19 20 20 20 20 21 22 22 22 23 23 24 25 24 24 26 28 29 27 25 24 25 26 27 28 29 30 28 27 27 26 25 24 24 26 28 26 27 31 32 32 32 34 34 33 33 35 34 35 37 39 40 41 41 42
9 10 12 13 12 10 9 9 9 9 9 9 10 12 12 12 13 13 13 15 15 15 16 16 17 18 18 18 18 18 19 19 19 19 20 20 20 20 21 22 22 22 23 24 24 25 24 25 26 26 26 27 27 27 28 29 30 30 31 31 28 26 25 26 25 23 24 28 29 27 28 32 35 34 35 35 34 33 34 35 36 37 38 39 40 41 42 42
7 8 10 11 13 13 11 11 10 10 10 10 11 12 13 12 12 13 13 15 16 16 17 17 17 18 18 18 18 19 18 18 19 20 21 22 22 21 21 22 22 22 23 25 25 24 25 25 26 25 25 26 28 29 30 31 32 32 32 33 30 26 25 27 25 24 26 29 30 30 31 34 37 36 36 36 34 34 34 36 37 38 38 39 40 41 41 41
8 8 8 8 10 12 12 12 12 11 11 11 11 12 13 13 13 14 14 15 16 17 17 17 18 18 19 20 20 20 21 20 20 21 22 22 23 23 22 22 22 22 23 24 24 24 26 27 26 26 27 27 29 32 32 32 32 32 32 33 32 28 26 26 26 27 28 28 30 33 34 35 37 37 37 37 36 35 35 36 38 38 38 40 40 41 42 41
9 8 8 8 9 10 11 12 13 13 13 12 12 12 13 14 15 15 15 16 16 17 17 17 18 19 20 21 20 21 23 23 21 21 22 22 23 24 22 21 21 22 23 24 24 25 27 27 26 27 28 29 30 32 32 31 31 32 32 32 33 30 27 26 28 29 29 28 32 36 37 38 37 37 38 39 37 36 36 37 38 39 40 41 41 42 42 41
9 9 9 10 10 10 10 11 12 12 13 13 12 13 14 15 15 15 16 16 16 17 18 19 20 21 21 20 21 22 24 25 24 23 23 23 24 24 24 22 22 23 24 24 24 25 26 27 27 28 31 32 30 31 31 31 31 33 32 30 31 32 31 29 30 30 30 31 34 37 38 39 38 37 38 38 37 37 36 37 39 40 41 42 43 43 42 40
8 9 9 10 11 11 11 11 11 11 13 14 13 14 15 15 16 15 16 17 18 19 20 21 22 23 21 21 22 23 24 25 25 25 24 24 24 24 24 23 23 24 25 25 25 25 25 27 27 28 32 33 32 32 32 32 34 35 32 31 32 34 33 32 31 31 31 33 35 36 38 38 37 36 37 38 38 37 38 39 40 40 42 43 43 42 40 39
10 9 9 9 10 12 11 11 12 12 13 14 14 14 15 15 16 16 17 18 19 20 21 22 23 23 21 20 22 23 23 24 24 25 24 24 24 24 24 24 25 26 26 25 25 25 26 27 28 29 31 33 34 35 37 38 37 33 30 31 34 34 34 34 32 31 31 33 35 36 37 37 36 36 38 40 40 39 39 40 41 41 43 44 43 40 39 39
10 10 9 10 10 11 12 12 12 12 13 14 14 14 15 16 16 17 18 18 19 20 21 22 23 22 21 21 22 23 24 24 24 24 24 23 24 25 24 25 25 25 25 25 25 25 26 27 29 29 30 34 36 38 40 39 35 28 27 31 34 34 35 36 35 33 33 33 34 36 38 39 39 40 40 41 40 39 40 41 41 43 46 46 43 39 38 39
Wind_Direction
218 218 218 218 219 219 218 218 219 221 223 224 226 229 232 233 236 239 243 248 253 259 262 264 261 254 255 256 247 239 237 231 223 214 205 221 240 236 232 226 228 229 220 216 208 205 208 205 202 201 195 184 183 185 192 212 239 246 251 259 268 278 287 296 279 297 317 302 278 255 247 266 280 283 293 301 293 290 295 295 295 295 294 296 306 315 315 315
213 214 215 216 217 217 217 217 218 219 220 222 225 228 232 236 240 243 247 252 257 261 262 262 257 251 249 247 235 224 216 211 205 184 195 228 242 220 217 216 214 207 199 201 201 206 208 198 191 194 196 187 184 199 209 233 264 264 270 270 284 306 317 320 308 312 316 303 276 261 259 269 287 292 294 296 290 287 290 293 294 293 295 295 298 302 304 307
207 209 210 212 213 214 214 215 216 216 219 222 226 230 234 238 242 246 250 253 256 257 257 254 249 244 239 229 216 205 202 206 201 186 203 228 220 195 196 194 189 188 188 195 199 201 198 188 184 193 203 197 194 220 234 268 276 280 282 278 303 322 322 323 320 327 323 316 289 271 277 276 294 304 300 299 294 289 289 293 296 292 292 294 295 295 298 300
196 200 202 204 204 205 206 208 210 214 219 224 228 232 236 240 244 247 249 249 247 244 242 242 239 231 216 202 193 188 194 198 185 179 198 196 186 178 179 180 181 186 185 185 185 185 186 183 184 193 210 209 206 230 253 294 287 296 292 295 322 311 306 318 323 333 326 317 301 287 291 284 297 306 302 301 299 296 293 291 291 293 296 298 299 297 296 297
181 184 187 189 191 193 196 201 207 214 219 224 229 233 236 239 242 243 240 233 223 216 214 215 210 194 183 179 177 179 188 184 166 166 178 175 181 177 180 181 180 179 176 177 174 174 179 183 187 195 214 221 228 239 262 320 299 302 299 307 323 310 308 317 324 331 324 317 310 300 297 294 302 304 298 296 298 302 305 300 292 294 300 303 305 303 298 296
160 164 168 172 176 182 187 195 202 209 215 220 224 226 227 228 229 226 217 204 194 188 180 171 161 158 163 167 170 172 174 166 156 165 173 180 186 181 179 173 169 168 170 176 175 177 181 190 200 207 219 229 251 262 294 319 295 294 297 301 314 319 319 320 325 327 320 311 307 306 304 303 304 303 298 292 291 297 308 312 305 301 303 305 308 307 302 297
142 146 150 155 162 169 175 183 190 196 202 206 207 205 202 199 197 192 186 180 174 171 167 160 151 149 154 157 160 159 153 150 155 175 175 178 178 172 168 162 160 161 166 173 178 187 190 199 207 216 227 233 262 286 310 315 305 301 299 300 310 320 320 323 326 323 318 310 310 315 312 305 300 302 303 295 291 292 295 302 304 305 306 307 307 306 303 299
133 136 140 145 151 156 162 169 175 184 189 192 189 182 177 170 165 164 165 166 166 166 163 156 150 150 152 153 157 150 141 153 176 180 163 161 158 158 160 158 159 157 162 169 176 190 197 208 211 220 234 253 282 300 313 308 314 311 302 304 311 318 318 321 322 319 316 314 316 314 307 301 298 304 305 296 294 293 290 293 296 300 302 304 303 302 302 300
127 130 132 135 139 142 147 153 161 172 179 181 178 174 170 162 156 153 157 164 165 163 159 153 151 154 154 160 167 154 146 175 181 164 148 146 146 149 152 151 153 156 167 176 180 192 205 212 209 228 243 292 290 310 318 305 309 315 306 305 310 314 316 314 314 316 313 312 313 306 300 299 301 308 305 296 293 293 292 292 293 296 297 300 301 300 300 299
123 123 125 126 127 128 130 133 139 152 161 166 168 170 167 161 154 148 152 159 160 157 156 154 153 155 158 168 169 154 153 163 153 147 140 139 141 139 141 143 143 149 162 172 185 208 219 212 192 219 244 324 313 318 316 307 308 315 312 312 313 312 311 307 307 311 308 308 307 302 302 302 304 310 306 304 304 299 297 295 294 296 297 299 301 299 299 299
119 119 119 119 119 117 114 112 114 122 131 136 143 150 155 156 149 138 137 142 146 149 149 150 149 146 146 148 144 142 145 142 134 132 129 130 134 131 132 133 129 134 139 139 159 206 214 186 180 242 281 291 319 331 323 312 305 305 308 312 311 306 305 301 301 304 304 306 305 304 305 300 302 304 299 301 307 306 303 299 298 298 299 300 300 300 301 300
116 115 115 113 111 107 104 102 104 107 110 115 121 130 140 146 146 138 132 132 134 135 137 140 141 137 130 120 121 134 135 130 129 124 122 123 125 125 124 121 114 125 139 144 142 357 177 224 256 311 313 287 293 313 314 307 304 298 295 303 302 297 297 291 295 301 301 307 311 310 307 300 297 293 291 294 297 302 303 300 299 299 299 300 301 302 302 302
111 110 109 107 105 103 102 102 102 103 104 106 110 117 125 132 137 138 135 132 130 130 133 136 135 132 126 117 119 130 129 126 127 122 121 120 116 110 104 103 100 100 106 121 90 9 347 307 302 351 335 303 298 305 304 301 302 295 293 301 300 297 297 290 295 300 299 307 313 311 310 308 304 291 292 299 298 298 300 299 299 299 299 300 301 303 303 303
106 105 105 104 103 103 102 103 104 103 103 104 105 109 115 122 126 129 132 130 126 126 129 131 128 123 119 120 124 125 124 125 123 119 117 115 112 106 98 94 91 88 80 76 61 41 35 4 345 340 327 321 307 292 295 294 294 298 302 304 299 302 304 293 297 299 298 307 310 307 307 308 312 305 301 307 303 298 299 299 298 298 298 300 301 302 303 303
103 104 104 103 103 103 103 105 105 103 102 101 103 106 110 115 118 119 121 122 121 121 123 125 124 120 118 120 125 124 121 122 118 112 112 109 111 110 99 90 83 74 63 55 42 34 31 1 335 327 323 319 293 283 295 295 294 301 304 305 302 304 304 296 297 297 299 306 303 302 305 305 310 313 312 310 305 300 298 298 297 296 297 299 300 301 302 304
103 102 102 103 104 104 104 105 105 102 101 101 103 104 107 111 112 113 114 115 117 116 117 118 118 119 119 118 122 122 118 116 110 107 109 104 101 102 93 86 70 48 37 26 11 358 343 334 333 324 305 299 299 299 300 295 296 300 301 306 306 303 303 301 300 299 301 305 299 295 301 304 306 309 309 306 303 298 297 297 295 295 296 297 299 300 301 304
102 101 102 105 105 105 105 106 105 104 103 103 102 103 106 109 110 111 111 111 113 111 111 111 111 114 113 116 119 115 110 107 101 101 107 106 97 80 53 38 18 10 5 356 336 315 318 324 319 312 305 307 312 306 300 298 300 304 304 304 303 302 303 302 301 301 300 300 297 294 295 298 301 302 301 300 297 294 294 295 293 293 294 296 298 299 300 303
101 101 103 106 106 106 106 107 107 105 105 105 104 104 105 106 108 109 110 113 113 111 110 106 108 115 109 108 110 102 100 101 97 92 94 102 91 49 16 346 303 301 297 306 326 321 316 314 306 309 316 320 322 314 306 307 306 306 306 304 303 302 300 299 301 303 300 297 296 296 295 296 298 299 298 298 296 293 291 292 293 293 293 294 296 297 299 302
102 103 105 106 107 107 108 108 107 107 105 105 107 106 104 104 104 101 100 104 107 108 109 99 98 110 107 101 99 93 93 96 92 86 82 86 63 19 3 352 328 304 305 312 335 331 318 313 309 313 321 323 323 318 312 310 307 305 304 302 301 301 300 300 302 304 303 300 297 296 296 298 299 299 299 298 297 294 291 291 292 293 293 294 294 295 297 300
103 104 106 107 107 108 108 108 108 107 105 105 107 106 105 104 101 97 93 94 96 98 99 94 91 98 99 94 90 85 90 94 85 72 59 55 34 12 4 352 343 345 337 329 337 330 315 320 325 323 323 322 320 316 312 309 306 304 302 300 299 299 301 302 303 306 306 302 300 299 299 298 299 300 299 298 297 294 291 289 291 293 293 293 293 294 296 299
104 105 107 107 107 108 108 108 108 106 104 105 105 102 103 103 100 101 98 94 93 92 91 91 90 93 92 89 84 79 89 96 80 62 49 41 26 16 11 356 347 358 349 326 323 324 320 328 331 325 322 319 317 314 311 309 306 304 302 301 302 301 302 305 306 308 307 303 302 302 301 300 300 300 299 297 296 295 292 290 290 291 292 293 292 293 296 299
105 107 108 107 108 108 107 108 106 103 103 103 101 100 101 101 100 101 100 94 90 86 86 87 86 87 87 86 81 75 81 84 69 54 42 30 28 26 9 4 6 356 342 326 321 323 326 333 329 322 320 316 314 313 310 309 306 304 304 302 304 306 306 306 307 308 306 303 303 305 305 303 301 300 298 297 297 297 296 294 291 291 293 293 294 295 297 298
107 108 109 108 109 108 109 108 102 97 100 102 100 101 100 99 98 96 93 92 88 82 80 80 77 75 76 76 69 64 69 69 55 40 28 20 26 23 3 4 7 353 343 337 333 327 327 332 330 324 320 316 314 312 310 309 307 304 304 303 304 309 310 306 306 306 304 301 303 305 304 303 302 300 298 299 302 302 301 299 296 295 295 295 295 297 298 298
108 111 111 111 110 110 110 107 98 94 99 102 102 102 100 96 93 86 84 86 84 80 77 75 72 67 66 66 58 57 64 60 44 27 20 15 13 6 359 357 352 350 347 340 335 333 333 332 330 324 318 316 315 314 312 312 311 305 303 306 306 310 309 305 306 307 304 301 302 305 304 303 304 304 303 304 305 304 301 299 298 295 294 294 295 297 298 300
111 114 113 112 111 109 107 101 96 96 99 100 100 100 98 91 84 80 82 85 78 74 74 73 71 63 57 55 49 53 59 50 37 21 16 14 5 356 357 352 344 345 343 336 330 329 333 330 326 321 316 316 316 314 315 315 314 310 308 312 311 310 308 306 307 308 307 304 303 308 307 304 305 306 306 306 306 305 301 299 298 296 294 293 294 297 301 303
112 114 113 111 109 107 103 97 97 99 97 96 99 99 94 85 79 75 81 87 73 63 63 64 64 55 46 41 36 40 48 38 27 16 11 9 3 353 350 348 343 343 339 334 328 325 329 326 319 318 316 315 313 313 316 317 314 312 312 314 312 310 308 307 308 307 306 304 303 306 303 300 303 306 307 308 307 305 301 299 300 299 297 296 298 301 305 307
111 112 112 110 109 107 99 95 100 101 92 92 98 96 89 82 74 68 78 88 68 55 53 53 55 47 39 34 28 30 30 14 9 11 7 1 357 349 344 345 340 339 338 331 326 323 325 322 316 316 315 313 313 315 317 316 313 312 314 314 312 310 308 306 307 304 302 303 303 301 297 296 301 307 310 308 307 305 303 302 302 301 300 299 301 304 307 308
110 112 113 110 109 106 95 93 104 102 89 87 90 88 86 77 66 63 75 78 57 47 47 45 46 37 29 28 27 31 21 4 360 3 359 354 352 343 338 342 336 332 333 329 327 325 323 321 318 316 314 314 316 318 318 314 310 312 315 314 311 309 307 305 305 302 302 304 303 300 296 297 300 307 312 308 305 306 306 305 302 301 301 299 300 304 307 308
109 112 113 110 109 104 92 90 98 96 86 82 79 79 77 67 66 69 72 67 48 42 41 34 32 23 15 16 23 23 12 4 359 351 350 351 349 343 338 338 335 330 328 326 327 325 325 325 322 318 316 317 319 318 317 312 310 314 315 311 308 307 306 305 303 303 303 302 301 300 298 300 302 307 311 308 305 307 307 306 303 300 300 298 300 303 307 309
106 110 112 110 107 102 93 87 86 85 79 74 72 71 63 59 66 67 61 54 39 34 32 26 22 11 5 7 13 10 3 359 353 345 345 347 345 345 339 332 331 327 323 325 325 325 328 325 322 321 318 319 320 316 315 312 312 316 314 310 309 307 305 304 303 304 303 301 303 303 302 303 304 307 310 308 306 307 307 306 303 300 298 298 300 303 305 308
103 106 109 108 105 100 92 84 77 74 69 66 68 61 52 54 55 54 54 46 29 24 23 21 17 7 5 5 1 357 354 351 349 347 345 343 343 344 340 334 333 328 323 327 328 328 328 324 323 325 321 319 318 315 316 315 314 316 314 313 314 311 307 305 304 303 302 303 307 307 307 304 301 304 308 307 306 305 305 304 302 300 299 300 303 304 305 307
99 101 101 101 101 96 86 78 70 65 60 56 57 51 48 51 46 44 40 22 11 14 16 12 5 360 357 356 354 351 348 346 347 346 342 339 342 344 343 341 338 333 331 330 329 328 327 324 325 326 323 321 319 318 319 317 316 316 316 317 316 314 312 308 306 304 302 304 306 308 309 303 298 302 305 305 306 306 304 302 300 299 300 303 307 308 308 307
95 96 95 92 93 89 81 77 66 57 52 47 48 47 45 45 39 36 27 13 9 6 3 357 351 347 344 348 353 347 341 343 342 340 337 334 337 342 342 343 339 333 331 329 327 328 328 325 324 324 325 323 320 321 321 319 319 319 320 320 317 316 314 310 308 307 304 304 306 308 308 303 302 306 307 308 309 308 307 304 300 301 302 303 306 307 307 306
90 89 90 85 84 81 75 71 58 47 46 44 44 43 45 45 39 34 27 19 13 360 354 352 345 341 346 351 352 345 340 343 341 337 335 333 337 340 338 342 341 333 328 327 327 327 325 324 326 326 326 324 323 323 322 319 319 320 320 319 316 315 312 309 309 309 306 306 307 307 306 304 306 311 312 311 311 310 310 308 304 303 302 300 302 305 307 308
85 85 85 79 74 70 63 59 52 45 43 36 36 40 42 41 33 25 20 10 2 354 350 351 345 342 350 351 348 346 342 341 339 336 337 337 337 338 335 337 340 335 331 330 330 327 322 322 327 328 325 324 324 324 323 321 319 320 320 318 316 316 312 307 304 305 305 305 305 303 301 302 305 309 310 309 309 313 314 312 309 307 305 302 303 306 309 311
81 80 76 68 61 57 53 51 47 44 38 29 38 44 39 33 22 16 13 4 357 351 345 346 347 346 349 346 344 346 340 336 335 334 337 338 334 336 336 335 337 337 335 333 331 329 324 322 326 327 326 326 327 325 324 324 322 321 320 319 318 315 311 307 304 305 305 303 303 304 303 306 309 311 310 306 308 313 315 314 311 311 309 307 306 309 311 312
74 72 68 59 52 47 46 44 39 40 38 34 41 42 34 28 21 14 9 2 356 351 344 346 348 346 345 342 342 342 336 335 336 334 336 336 334 336 336 336 336 335 336 333 330 331 326 322 325 327 326 328 329 326 325 325 323 323 322 322 320 316 313 311 307 308 308 304 305 308 308 310 311 311 311 308 308 312 314 312 310 310 310 309 309 310 311 313
69 69 64 52 43 41 41 41 39 41 41 37 40 40 30 23 18 10 3 356 350 347 348 352 350 344 343 342 341 341 337 338 339 337 337 337 335 335 334 336 336 335 335 332 329 332 327 323 327 329 327 329 330 328 327 326 324 324 323 323 323 320 317 315 312 312 311 307 307 309 309 311 311 311 311 310 310 313 313 312 310 310 311 310 311 312 314 315
63 62 54 39 35 39 37 33 34 33 32 30 33 34 25 19 16 7 359 354 347 347 353 354 349 345 345 343 341 342 341 340 339 339 339 337 336 336 336 336 335 334 334 331 329 331 328 325 328 329 328 330 331 330 329 328 326 325 324 324 325 322 318 317 316 314 311 308 308 310 310 311 312 312 311 310 312 313 314 314 312 312 312 313 314 316 318 318
50 48 43 32 31 37 36 38 38 31 26 27 29 27 20 17 13 5 1 357 352 353 355 352 349 348 347 344 343 343 340 337 337 338 339 337 336 338 340 337 335 335 333 330 329 329 328 325 323 326 329 330 331 332 332 330 329 328 327 326 325 323 320 318 316 314 312 310 309 309 309 310 314 316 312 310 312 313 315 317 315 313 314 315 317 319 319 320
40 39 36 29 28 30 34 40 34 24 23 29 29 25 19 13 9 5 2 358 356 356 354 352 351 349 346 344 345 344 339 336 337 339 339 339 338 337 339 337 335 335 332 330 330 330 330 325 321 324 328 329 331 335 335 333 331 328 328 327 326 325 324 321 319 319 316 312 311 309 307 309 315 318 315 313 313 313 316 318 316 314 315 316 317 319 319 319
37 35 28 24 25 25 31 34 23 17 26 29 24 20 16 10 6 4 0 357 355 353 351 351 350 349 348 346 344 344 342 338 339 340 339 338 337 336 337 337 334 333 331 330 331 331 330 326 322 323 325 326 332 338 338 334 329 325 325 326 327 326 324 321 320 322 320 315 314 310 306 308 316 319 317 316 315 314 317 319 317 316 317 317 317 318 318 318
34 34 26 22 23 24 31 35 26 23 28 24 18 17 13 8 5 1 359 358 355 351 351 352 350 350 351 349 344 345 345 340 338 340 339 337 338 337 337 336 333 331 331 330 332 332 330 326 324 323 324 327 332 335 335 332 328 325 324 325 326 326 325 322 320 322 320 316 316 314 308 310 318 321 318 317 316 315 318 320 320 318 316 316 317 318 319 319
39 39 34 26 25 29 33 33 30 28 25 20 20 17 12 9 6 2 359 359 357 353 353 355 354 352 351 349 345 344 345 342 339 340 339 337 338 338 337 335 333 333 333 332 332 333 330 328 328 326 327 330 332 331 331 329 327 326 325 326 326 326 327 324 321 321 318 314 315 315 312 313 320 322 319 317 315 315 318 320 320 318 317 317 319 319 319 319
40 42 40 35 38 43 39 31 29 29 23 20 20 13 8 9 6 1 360 359 359 356 354 355 354 350 349 347 344 343 343 341 339 340 340 337 336 338 337 335 334 334 335 333 332 331 329 328 328 327 327 329 328 328 327 325 325 325 325 325 325 325 324 321 320 320 318 316 315 314 312 314 319 321 319 318 316 314 318 320 319 318 318 319 320 320 319 319
38 39 37 37 41 43 39 31 26 24 18 15 16 10 6 6 4 0 359 360 359 356 353 353 351 348 347 346 342 341 341 340 339 340 339 337 337 338 337 336 334 333 334 333 331 331 329 327 326 323 322 322 321 320 321 321 322 322 322 322 323 325 323 321 319 316 315 316 316 314 313 314 318 320 320 320 318 315 317 320 319 319 319 320 321 321 320 320
38 32 24 26 34 33 31 28 22 18 13 9 10 9 6 6 4 360 359 358 356 353 350 350 350 348 347 344 342 341 340 340 339 339 338 337 337 336 335 335 335 333 333 333 332 331 328 327 328 324 320 317 316 317 319 319 318 318 319 319 321 324 325 321 316 313 314 314 312 314 315 314 317 320 320 320 319 316 317 319 320 319 320 321 322 322 322 322
34 34 24 23 25 21 22 21 17 19 18 12 12 9 5 6 3 359 356 354 352 352 349 348 350 349 345 342 340 340 340 339 338 339 338 337 337 335 334 335 335 333 333 333 332 331 328 327 330 328 322 318 316 316 317 317 316 316 317 317 317 319 320 317 313 312 312 309 308 312 314 313 314 316 318 318 317 316 317 320 320 320 320 321 321 322 323 323
41 41 30 27 28 24 20 14 11 18 18 11 11 9 4 3 1 356 353 350 349 350 348 346 347 347 345 341 339 340 341 339 337 337 338 337 335 334 333 334 335 334 334 332 332 331 328 327 330 328 322 321 320 317 316 316 317 317 317 316 316 316 315 314 312 312 310 305 306 309 310 310 313 314 315 316 315 315 317 318 319 319 319 319 320 321 322 322
40 40 34 34 32 24 18 12 8 14 13 6 6 5 359 359 358 354 351 349 348 349 347 345 344 344 343 341 339 339 342 340 335 335 337 336 335 335 334 334 335 334 333 332 331 330 327 328 330 327 323 324 325 323 321 321 320 317 316 317 317 316 316 316 315 314 312 308 308 309 309 310 314 314 313 314 315 315 315 316 317 318 318 318 318 319 319 321
41 41 39 34 23 14 13 11 6 8 9 4 3 0 356 356 355 351 349 348 347 347 346 345 343 342 342 340 339 340 343 341 334 333 335 333 333 335 334 334 335 334 332 331 331 329 327 326 328 327 323 324 328 328 326 325 322 317 316 319 319 318 318 318 318 316 314 311 310 310 310 312 315 316 314 314 315 314 314 316 317 317 317 317 316 316 317 319
40 38 31 23 17 11 10 9 4 4 4 0 358 356 353 354 352 347 347 347 346 346 346 344 342 342 341 341 341 341 340 337 333 333 332 330 330 330 328 328 330 331 331 332 331 330 329 326 326 326 323 323 327 328 327 326 325 324 325 324 321 318 317 317 317 317 315 312 311 310 310 312 314 314 314 314 314 314 315 316 317 317 317 315 314 313 314 317